Regional Weather Roundup
Issued by NWS Upton, NY

Current Version | Previous Version | Text Only | Print | Product List | Glossary Off
Versions: 1 2 3 4 5 6 7 8 9 10 11 12 13 14 15 16 17 18 19 20 21 22 23 24 25 26 27

000
ASUS41 KOKX 291304
RWROKX

REGIONAL WEATHER ROUNDUP
NATIONAL WEATHER SERVICE NEW YORK NY
900 AM EDT FRI APR 29 2016

NOTE: "FAIR" INDICATES FEW OR NO CLOUDS BELOW 12,000 FEET WITH NO
SIGNIFICANT WEATHER AND/OR OBSTRUCTIONS TO VISIBILITY.

NYZ071-072-176-178-NJZ106-104-291400-
NEW YORK CITY METRO AREA


CITY           SKY/WX    TMP DP  RH WIND       PRES   REMARKS
CENTRAL PARK   CLOUDY    50  32  50 E5        30.13S
LAGUARDIA APRT CLOUDY    51  33  50 NE12      30.11R
KENNEDY INTL   CLOUDY    51  35  54 E12       30.12S
NEWARK/LIBERTY CLOUDY    52  32  46 E7        30.10S
BRNX BOT. GARD   N/A     50  37  62 E9        30.13R
TETERBORO      CLOUDY    50  38  63 E7        30.10S
$$

NYZ177-179-078>081-291400-
LONG ISLAND NEW YORK

CITY           SKY/WX    TMP DP  RH WIND       PRES   REMARKS
FARMINGDALE    CLOUDY    50  33  52 E10       30.12R
ISLIP          PTSUNNY   50  31  48 E15       30.12R
SHIRLEY        PTSUNNY   51  31  46 E9G22     30.13R
RIVERHEAD        N/A     48  36  61 E8        30.13R
WESTHAMPTON    CLOUDY    46  34  62 E10G20    30.14R
EAST HAMPTON   PTSUNNY  N/A N/A N/A E12       30.13S
MONTAUK POINT    N/A     48  35  60 VRB6      30.16R
$$

NYZ052-065-067-291400-
HUDSON VALLEY

CITY           SKY/WX    TMP DP  RH WIND       PRES   REMARKS
WHITE PLAINS   PTSUNNY   48  37  65 E8        30.11R
NEWBURGH       PTSUNNY   46  37  71 E6        30.12S
MONTGOMERY     CLOUDY    47  33  58 N6        30.11S
POUGHKEEPSIE   CLOUDY    52  35  52 VRB5      30.12S
ALBANY         PTSUNNY   46  24  42 CALM      30.15R
$$

NJZ001-105-106-008-010-013-015-019>022-104-291400-
NEW JERSEY

CITY           SKY/WX    TMP DP  RH WIND       PRES   REMARKS
NEWARK/LIBERTY CLOUDY    52  32  46 E7        30.10S
TETERBORO      CLOUDY    50  38  63 E7        30.10S
CALDWELL       CLOUDY    50  37  61 E9        30.11S
MORRISTOWN     CLOUDY    50  34  53 E9        30.11S
SOMERVILLE     PTSUNNY   53  36  52 E8        30.08S
SUSSEX         CLOUDY    49  37  63 E7        30.11R
ANDOVER          N/A     49  35  58 VRB5      30.09S
TRENTON        CLOUDY    49  41  74 E7        30.08S
MILLVILLE      CLOUDY    48  44  86 NE7       30.07R
ATLANTIC CITY  CLOUDY    50  44  80 E8        30.07R
WRIGHTSTOWN    CLOUDY    48  44  85 NE10      30.06R
TOMS RIVER     CLOUDY    48  39  71 E10       30.09R
BELMAR         CLOUDY    48  41  76 E13       30.10R
$$

PAZ047>061-062-071-291400-
EASTERN PENNSYLVANIA

CITY           SKY/WX    TMP DP  RH WIND       PRES   REMARKS
PHILADELPHIA   CLOUDY    50  40  68 E13G20    30.08R
ALLENTOWN      CLOUDY    50  39  66 E9        30.08S
SCRANTON       CLOUDY    50  36  58 SE7       30.04F
$$

CTZ002-004>006-009-010-012-RIZ004-006-007-MAZ004-011-015-291400-
SOUTHERN NEW ENGLAND
 IN CT

CITY           SKY/WX    TMP DP  RH WIND       PRES   REMARKS
BRADLEY INTL   PTSUNNY   49  35  58 CALM      30.15R
HARTFORD       CLOUDY    50  38  63 CALM      30.15S
DANBURY        CLOUDY    47  31  53 SE7       30.13S
WTRBRY/OXFORD  MOSUNNY   46  32  57 SE5       30.15R
BRIDGEPORT     CLOUDY    50  37  61 E15       30.14R
MERIDEN        MOSUNNY   49  35  58 SE7       30.15R
NEW HAVEN      PTSUNNY   49  37  63 E9G21     30.14S
CHESTER        FAIR      46  37  71 VRB7      30.14S
GROTON         PTSUNNY   47  41  80 E17G23    30.15R
WILLIMANTIC    CLOUDY    50  32  50 VRB6      30.15S

 IN RI

CITY           SKY/WX    TMP DP  RH WIND       PRES   REMARKS
PROVIDENCE     PTSUNNY   48  35  60 E9        30.17F
BLOCK ISLAND   CLOUDY    46  36  68 E16       30.16R
WESTERLY       CLOUDY    48  34  58 E14       30.17R

 IN MA

CITY           SKY/WX    TMP DP  RH WIND       PRES   REMARKS
BOSTON         CLOUDY    47  36  65 E12       30.19S
WORCESTER      MOSUNNY   42  34  73 VRB6      30.15S
WESTFIELD      CLOUDY    48  31  51 N7        30.15S
PROVINCETOWN   MOSUNNY   47  31  53 SE9       30.20S
NANTUCKET      CLOUDY    46  33  60 E13       30.17S
$$

ANZ330-335-338-340-345-350-353-355-291400-
COASTAL MARINE OBSERVATIONS


STATION/POSITION TIME  SKY/WX   TEMP    WIND        PRES    VSBY  WAVE
                                AIR SEA DIR/SP/G                  HT/PER
                 (UTC)          (F)     (DEG/KT/KT) (MB)    (MI)  (FT/S)
NY HARB ENTRANCE 1250            49 51   80/ 17/ 21 1018.9          4/ 4
20S FIRE ISLAND  1150            47 49   70/ 19/ 21 1018.2          4/ 4
GREAT SOUTH BAY  1200            49 57   70/ 17/ 21   N/A
23 SSW MONTAUK P 1250            46 46   90/ 21/ 23 1019.3          5/ 5
15 E BARNEGAT LI 1222               51                N/A           5/ 5
HUDSON CANYON    1150            49 50              1016.7          4/ 6
KINGS POINT      1200            48 53              1019.3
EXECUTION ROCKS  NOT AVBL
CENTRAL LI SOUND 1200            47      90/ 16/ 19   N/A           2/ 4
EASTERN LI SOUND 1200            47 47   90/ 14/ 19   N/A
ROBBINS REEF     1200            49      70/ 12/ 15 1018.7
$$


>>>>>>>>>>>>>>>>>>>>>>>>>>>> KEY <<<<<<<<<<<<<<<<<<<<<<<<<<<
>                                                          <
>     SKY/WX - SKY CONDITION/PRESENT WEATHER               <
>     TMP    - TEMPERATURE IN FAHRENHEIT                   <
>     DP     - DEWPOINT IN FAHRENHEIT                      <
>     RH     - RELATIVE HUMIDITY IN PERCENT                <
>     WIND   - DIRECTION AND SPEED IN MPH                  <
>     PRES   - MEAN SEA LEVEL PRESSURE IN INCHES OF HG     <
>     WCI    - WIND CHILL INDEX                            <
>     VSB    - VISIBILITY IN MILES                         <
>     HX     - HEAT INDEX                                  <
>     TC     - TEMPERATURE IN CELSIUS                      <
>     VRB    - VARIABLE WIND DIRECTION                     <
>                                                          <
>>>>>>>>>>>>>>>>>>>>>>>>>>>> KEY <<<<<<<<<<<<<<<<<<<<<<<<<<<






USA.gov is the U.S. government's official web portal to all federal, state and local government web resources and services.